Location: Rimouski
(48.4330°N, 68.5170°W)
Time: 03:19:01
(UTC-05:00)

Daily predictions for brighter satellites

Satellite Brightness Start Highest point End
(mag) Time Altitude Azimuth Time Altitude Azimuth Time Altitude Azimuth
SL-16 R/B 4.2 03:09:44 23° ENE 03:09:44 23° ENE 03:12:56 10° ESE
Cosmos 2322 Rocket 4.1 03:14:23 25° ENE 03:14:23 25° ENE 03:17:54 10° ESE
CZ-4C R/B 4.3 03:16:32 19° ESE 03:17:02 19° ESE 03:21:00 10° ENE
SeaSat 1 4.4 03:29:55 10° NE 03:33:59 25° ESE 03:34:10 25° ESE
USA 234 3.7 03:27:58 10° ESE 03:33:26 58° ENE 03:33:26 58° ENE
Cosmos 2082 Rocket 3.9 03:43:14 24° NNE 03:43:14 24° NNE 03:45:25 10° NNE
Cosmos 1833 Rocket 4.5 03:45:19 23° NNE 03:45:19 23° NNE 03:47:18 10° NNE
CZ-4B R/B 4.1 03:57:57 10° NNE 04:01:35 41° NNE 04:01:35 41° NNE
Cosmos 2360 Rocket 3.7 04:06:53 24° NNE 04:08:58 31° NE 04:13:57 10° ESE
Cosmos 1980 Rocket 4.0 04:14:52 20° S 04:14:52 20° S 04:16:34 10° S
Meteor 1-23 Rocket 4.4 04:14:09 57° NNE 04:15:02 67° ENE 04:20:33 10° SSE
Cosmos 1025 Rocket 4.2 04:22:10 37° NE 04:22:49 40° ENE 04:26:52 10° SE
IDEFIX/ARIANE 42P 4.0 04:20:58 10° NNE 04:25:48 37° E 04:30:37 10° SSE
Timation 2 Rocket 4.2 04:28:20 15° SSW 04:34:07 81° ESE 04:41:01 10° NNE
ATLAS 5 CENTAUR R/B 3.8 04:37:46 21° N 04:39:45 25° NNE 04:44:44 10° E
Cosmos 1092 Rocket 4.3 04:34:26 10° S 04:40:29 66° E 04:46:36 10° NNE
USA 267 3.1 04:33:57 10° NE 04:40:31 85° NNW 04:42:46 45° WSW
COSMO-SKYMED 1 2.6 04:40:44 10° SSE 04:44:39 73° S 04:44:39 73° S
Cosmos 1538 Rocket 3.9 04:42:17 26° SSW 04:45:19 88° ESE 04:50:40 10° NNE
Okean 2 3.5 04:46:28 65° NE 04:46:51 70° E 04:50:56 10° SSE
SL-16 R/B 2.1 04:51:38 53° NW 04:52:52 69° WSW 04:58:28 10° SSE
Meteor 2-11 Rocket 4.5 04:48:14 10° N 04:54:23 78° E 05:00:28 10° SSE
Okean-O 2.7 04:50:25 10° NNE 04:54:52 77° ESE 04:59:19 10° S
Cosmos 2322 Rocket 2.1 04:56:14 49° NW 04:57:38 65° WSW 05:03:15 10° SSE
Okean 1 Rocket 3.0 04:55:51 10° S 05:00:14 86° E 05:04:42 10° N
CZ-4C R/B 2.1 05:01:47 30° SW 05:04:37 82° NW 05:10:51 10° NE
Meteor 1-11 Rocket 4.1 05:06:58 34° WSW 05:08:46 43° WNW 05:14:18 10° N
Meteor 1-4 Rocket 2.5 05:05:13 10° SSW 05:09:00 87° W 05:12:50 10° N
BREEZE-M DEB (TANK) 4.2 05:10:41 28° SW 05:11:26 30° SSW 05:16:28 10° SE
SeaSat 1 2.5 05:06:56 10° NNE 05:11:47 56° NW 05:13:59 31° WSW
Feng Yun 1-1 Rocket 4.2 05:06:03 10° NNE 05:11:54 77° WNW 05:17:34 10° SSW
PAYLOAD A 4.1 05:06:36 10° NNE 05:12:04 88° WNW 05:17:26 10° SSW
Cosmos 2056 Rocket 4.4 05:09:06 12° N 05:13:33 45° ENE 05:18:28 10° SE
ATLAS CENTAUR R/B 4.4 05:13:00 10° SE 05:14:59 14° ESE 05:16:58 10° E
Cosmos 1184 Rocket 2.6 05:16:18 75° WSW 05:16:18 75° WSW 05:19:37 10° S
Cosmos 1892 Rocket 4.1 05:12:10 10° N 05:16:31 58° ENE 05:20:49 10° SSE
Cosmos 1743 4.4 05:13:59 10° SSE 05:17:28 35° E 05:20:59 10° NNE
USA 234 3.5 05:11:16 10° SSE 05:17:37 52° SW 05:20:47 29° WNW
EO 1 Del DPAF 3.9 05:14:39 10° S 05:17:32 37° SW 05:17:32 37° SW
CZ-2C R/B 2.4 05:14:50 10° NNE 05:19:43 79° ESE 05:24:25 10° S
Cosmos 2322 3.9 05:18:41 17° NNW 05:23:07 74° ENE 05:28:46 10° SE
Cosmos 2082 Rocket 3.5 05:25:07 21° NNW 05:25:07 21° NNW 05:28:53 10° N
Meteor 1-5 Rocket 4.3 05:20:21 10° SW 05:25:28 43° WNW 05:30:34 10° N
deb Kosmos-1763 4.1 05:24:48 33° SW 05:26:13 55° WNW 05:29:55 10° NNE
Cosmos 1833 Rocket 4.1 05:27:03 20° NNW 05:27:03 20° NNW 05:30:33 10° N
SL-16 R/B 4.5 05:27:53 10° N 05:30:52 14° NNE 05:33:51 10° ENE
SKYMED 2 4.4 05:29:32 10° SSW 05:33:15 29° W 05:33:15 29° W
Cosmos 1500 3.3 05:29:34 10° SSW 05:33:20 52° WNW 05:37:07 10° N
NOAA 6 4.2 05:30:03 10° N 05:34:57 47° WNW 05:39:51 10° SW
Ariane Rocket 4.4 05:30:37 10° NNE 05:35:24 41° E 05:40:10 10° SSE
Cosmos 1340 Rocket 3.6 05:37:01 10° N 05:40:54 52° ENE 05:44:47 10° SSE
CZ-4B R/B 4.4 05:39:28 10° N 05:43:28 21° NW 05:43:28 21° NW
Cosmos 1271 Rocket 3.3 05:44:35 10° S 05:48:17 58° E 05:51:59 10° NNE
Meteor 1-21 4.4 05:43:36 10° N 05:49:13 73° ENE 05:54:49 10° SSE
Cosmos 2333 Rocket 3.2 05:45:40 10° NNW 05:51:12 44° NE 05:56:40 10° SE
COSMOS 2441 4.3 05:47:39 10° N 05:52:29 68° WNW 05:57:15 10° SSW
Cosmos 2360 Rocket 2.3 05:48:40 15° NW 05:53:18 56° WSW 05:58:49 10° S
COSMOS 2428 2.9 05:48:39 10° NNW 05:54:24 74° ENE 06:00:08 10° SE
Cosmos 389 Rocket 2.4 05:51:46 10° SSW 05:55:22 87° W 05:58:59 10° N
Cosmos 1455 Rocket 3.3 05:51:14 10° S 05:55:41 78° E 06:00:10 10° NNE
Cosmos 1066 Rocket 4.3 05:50:39 10° NNW 05:55:47 47° W 06:00:56 10° SSW
Cosmos 2285 Rocket 3.9 05:49:41 10° SSW 05:56:00 72° WNW 06:02:19 10° NNE
Cosmos 1624 Rocket 4.0 05:50:51 10° NNW 05:56:14 81° WSW 06:01:34 10° SSE
SMAP 3.5 05:51:58 10° NNE 05:56:39 66° ESE 06:01:16 10° S
Cosmos 1544 Rocket 3.5 05:55:38 10° S 06:00:06 89° WNW 06:04:34 10° N
Cosmos 1025 Rocket 4.2 05:59:07 19° WNW 06:00:10 21° W 06:03:25 10° SW
CZ-4 R/B 2.2 05:58:01 10° NNE 06:02:10 58° E 06:06:20 10° S
Cosmos 2219 Rocket 2.8 05:56:35 10° NNW 06:02:12 58° ENE 06:07:47 10° SE
Cosmos 2333 4.3 05:57:58 10° NNW 06:03:48 84° ENE 06:09:34 10° SSE
Cosmos 1680 Rocket 3.5 05:58:55 10° SW 06:04:02 58° WNW 06:09:14 10° NNE
IDEFIX/ARIANE 42P 3.1 06:00:41 10° N 06:05:22 35° WNW 06:10:04 10° SW
Cosmos 1666 2.6 06:01:38 10° SSW 06:05:27 74° W 06:09:16 10° N
Cosmos 1238 Rocket 4.2 06:00:17 10° N 06:06:58 76° E 06:12:54 10° SSE
BREEZE-M DEB (TANK) 2.9 06:06:54 10° WSW 06:09:20 69° SSE 06:15:12 10° ENE
S3M 4.0 06:04:49 10° NNW 06:10:56 62° W 06:17:04 10° S
ALOS 4.4 06:06:51 10° NNE 06:11:00 30° E 06:15:07 10° SSE
Cosmos 1371 Rocket 4.4 06:13:25 10° NNW 06:18:24 45° WSW 06:23:18 10° S
Aureole 2 Rocket 2.2 06:16:05 10° NNW 06:19:27 63° WSW 06:22:31 10° S
Cosmos 2237 Rocket 3.2 06:14:42 10° NNW 06:20:10 45° NE 06:25:34 10° SE
ERS-2 4.3 06:19:49 10° NNE 06:23:09 31° E 06:26:29 10° SSE
USA 267 3.6 06:17:01 10° ENE 06:23:12 47° NNW 06:29:22 10° W
Cosmos 921 Rocket 4.1 06:20:30 10° N 06:24:30 41° ENE 06:28:30 10° SE
ATLAS 5 CENTAUR R/B 2.6 06:19:35 10° NW 06:25:22 71° NE 06:31:49 10° SE
Cosmos 1975 3.7 06:22:02 10° SW 06:25:26 27° WNW 06:28:53 10° NNW
CSL-04 Debris 4.2 06:20:46 10° NNE 06:26:13 77° WNW 06:31:40 10° SSW
ERBS 3.1 06:25:18 11° NW 06:28:23 41° NNE 06:31:36 10° E
Thor Agena Rocket 4.3 06:25:14 10° SSW 06:29:39 30° W 06:34:09 10° NW
Okean-O 4.2 06:28:16 10° NNW 06:30:48 15° WNW 06:33:19 10° W
CZ-3B R/B 4.3 06:31:16 10° NW 06:33:10 26° NNE 06:37:21 10° E
Cosmos 2219 3.9 06:29:20 10° SSW 06:34:54 62° ESE 06:40:28 10° NNE
SL-16 R/B 4.0 06:34:26 10° W 06:35:52 11° W 06:37:18 10° WSW
Cosmos 1356 Rocket 3.5 06:34:11 10° N 06:38:17 81° ENE 06:42:26 10° SSE
METEOR-M 4.4 06:33:10 10° NNE 06:38:34 79° ESE 06:43:55 10° S
MONITOR-E 4.4 06:36:44 10° NNE 06:39:49 74° ESE 06:42:52 10° S
Cosmos 2322 Rocket 4.1 06:39:56 10° W 06:40:33 10° W 06:41:10 10° W
Meteor 2-9 Rocket 4.3 06:34:45 10° SSW 06:40:37 79° WNW 06:46:24 10° N
Cosmos 1378 4.3 06:37:00 10° N 06:40:39 46° ENE 06:44:17 10° SSE
Cosmos 2266 Rocket 3.9 06:35:24 10° SSW 06:41:28 72° W 06:47:31 10° N
CSL-04 Rocket 3.9 06:36:59 10° N 06:42:25 54° WNW 06:47:46 10° SW
IRAS Rocket 4.3 06:38:26 10° N 06:43:53 62° WNW 06:49:21 10° SSW
APEX 4.4 06:40:46 10° WSW 06:44:05 28° NW 06:48:11 10° NNE
